Weather History for Crystal River, FL

Change the Weather History Date:

Tuesday, December 11, 2012

  Actual Average (KBKV) Record (KBKV)
Temperature  
Mean Temperature 70 °F -  
Max Temperature 77 °F 70 °F 84 °F (2001)
Min Temperature 62 °F 46 °F 35 °F (2010)
Cooling Degree Days 4    
Growing Degree Days 20 (Base 50)    
Moisture  
Dew Point 68 °F    
Average Humidity 95    
Maximum Humidity 100    
Minimum Humidity 78    
Precipitation  
Precipitation 0.01 in - - ()
Sea Level Pressure  
Sea Level Pressure 29.96 in    
Wind  
Wind Speed 1 mph (WSW)    
Max Wind Speed 8 mph    
Max Gust Speed -    
Visibility 6 miles    
Events Fog , Rain    
Averages and records for this station are not official NWS values.
T = Trace of Precipitation, MM = Missing Value Source: NWS Daily Summary

Daily Weather History Graph

Daily Weather History Graph

Search for Another Location

Airport:

Trip Planner

Search our weather history database for the weather conditions in past years. The results will help you decide how hot, cold, wet, or windy it might be!

Date:

Astronomy

Dec. 11, 2012 Rise Set
Actual Time 7:13 AM EST 5:33 PM EST
Civil Twilight 6:47 AM EST 5:59 PM EST
Nautical Twilight 6:18 AM EST 6:29 PM EST
Astronomical Twilight 5:49 AM EST 6:58 PM EST
Moon 5:11 AM EST (12/11) 4:08 PM EST (12/11)
Length of Visible Light 11h 12m
Length of Day
10h 20m
Waning Crescent, 4% of the Moon is Illuminated
Dec 11
Waning Crescent
Dec 13
New
Dec 20
First Quarter
Dec 28
Full
Jan 4
Last Quarter

Hourly Weather History & Observations

Time (EST) Temp. Dew Point Humidity Pressure Visibility Wind Dir Wind Speed Gust Speed Precip Events Conditions
12:15 AM 66.2 °F 66.2 °F 100% 29.90 in 7.0 mi Calm Calm - N/A   Clear
12:35 AM 68.0 °F 66.2 °F 94% 29.90 in 10.0 mi Calm Calm - N/A   Clear
12:55 AM 66.2 °F 66.2 °F 100% 29.89 in 10.0 mi Calm Calm - N/A   Clear
1:15 AM 64.4 °F 64.4 °F 100% 29.88 in 7.0 mi Calm Calm - N/A   Clear
1:35 AM 64.4 °F 64.4 °F 100% 29.88 in 10.0 mi Calm Calm - N/A   Clear
1:55 AM 64.4 °F 64.4 °F 100% 29.88 in 7.0 mi Calm Calm - N/A   Clear
2:15 AM 66.2 °F 66.2 °F 100% 29.88 in 7.0 mi Calm Calm - N/A   Mostly Cloudy
2:35 AM 68.0 °F 68.0 °F 100% 29.89 in 10.0 mi Calm Calm - N/A   Overcast
2:55 AM 68.0 °F 68.0 °F 100% 29.89 in 10.0 mi Calm Calm - N/A   Scattered Clouds
3:15 AM 66.2 °F 66.2 °F 100% 29.89 in 5.0 mi SE 3.5 mph - N/A   Mostly Cloudy
3:35 AM 64.4 °F 64.4 °F 100% 29.90 in 0.5 mi Calm Calm - N/A Fog Fog
3:55 AM 64.4 °F 64.4 °F 100% 29.90 in 1.5 mi Calm Calm - N/A   Overcast
4:15 AM 64.4 °F 64.4 °F 100% 29.90 in 0.8 mi Calm Calm - N/A   Overcast
4:35 AM 64.4 °F 64.4 °F 100% 29.90 in 0.5 mi Calm Calm - N/A Fog Fog
4:55 AM 64.4 °F 64.4 °F 100% 29.91 in 0.2 mi Calm Calm - N/A Fog Fog
5:15 AM 64.4 °F 64.4 °F 100% 29.91 in 0.2 mi Calm Calm - N/A Fog Fog
5:35 AM 64.4 °F 64.4 °F 100% 29.91 in 0.5 mi Calm Calm - N/A Fog Fog
5:55 AM 64.4 °F 64.4 °F 100% 29.91 in 0.2 mi Calm Calm - N/A Fog Fog
6:15 AM 62.6 °F 62.6 °F 100% 29.91 in 0.2 mi Calm Calm - N/A Fog Fog
6:35 AM 62.6 °F 62.6 °F 100% 29.91 in 0.2 mi Calm Calm - N/A Fog Fog
6:55 AM 62.6 °F 62.6 °F 100% 29.93 in 0.8 mi Calm Calm - N/A   Overcast
7:15 AM 62.6 °F 62.6 °F 100% 29.93 in 0.2 mi Calm Calm - N/A Fog Fog
7:35 AM 62.6 °F 62.6 °F 100% 29.95 in 0.2 mi Calm Calm - N/A Fog Fog
7:55 AM 62.6 °F 62.6 °F 100% 29.96 in 0.2 mi Calm Calm - N/A Fog Fog
8:15 AM 64.4 °F 64.4 °F 100% 29.96 in 0.2 mi Calm Calm - N/A Fog Fog
8:35 AM 64.4 °F 64.4 °F 100% 29.96 in 0.2 mi Calm Calm - N/A Fog Fog
8:55 AM 64.4 °F 64.4 °F 100% 29.97 in 0.2 mi Calm Calm - N/A Fog Fog
9:15 AM 66.2 °F 66.2 °F 100% 29.97 in 0.5 mi Calm Calm - N/A Fog Fog
9:35 AM 66.2 °F 66.2 °F 100% 29.98 in 2.0 mi Calm Calm - N/A   Overcast
9:55 AM 68.0 °F 68.0 °F 100% 29.99 in 7.0 mi Calm Calm - N/A   Overcast
10:15 AM 68.0 °F 68.0 °F 100% 29.99 in 7.0 mi Calm Calm - N/A   Overcast
10:35 AM 68.0 °F 68.0 °F 100% 30.00 in 10.0 mi Calm Calm - N/A   Overcast
10:55 AM 69.8 °F 69.8 °F 100% 30.01 in 10.0 mi West 3.5 mph - N/A   Overcast
11:15 AM 69.8 °F 69.8 °F 100% 30.00 in 10.0 mi Calm Calm - N/A   Overcast
11:35 AM 71.6 °F 69.8 °F 94% 30.00 in 10.0 mi WSW 3.5 mph - N/A   Overcast
11:55 AM 73.4 °F 69.8 °F 88% 29.99 in 10.0 mi Calm Calm - N/A   Overcast
12:15 PM 73.4 °F 69.8 °F 88% 29.99 in 10.0 mi WSW 4.6 mph - N/A   Overcast
12:35 PM 73.4 °F 69.8 °F 88% 29.98 in 10.0 mi WSW 5.8 mph - N/A   Overcast
12:55 PM 75.2 °F 69.8 °F 83% 29.98 in 10.0 mi WSW 5.8 mph - N/A   Overcast
1:15 PM 77.0 °F 69.8 °F 78% 29.97 in 10.0 mi WSW 4.6 mph - N/A   Mostly Cloudy
1:35 PM 77.0 °F 69.8 °F 78% 29.96 in 10.0 mi WSW 4.6 mph - N/A   Overcast
1:55 PM 77.0 °F 69.8 °F 78% 29.96 in 10.0 mi West 6.9 mph - N/A   Overcast
2:15 PM 77.0 °F 69.8 °F 78% 29.96 in 10.0 mi West 5.8 mph - N/A   Overcast
2:35 PM 75.2 °F 69.8 °F 83% 29.96 in 10.0 mi WSW 8.1 mph - N/A   Overcast
2:55 PM 75.2 °F 69.8 °F 83% 29.96 in 10.0 mi WSW 3.5 mph - N/A   Overcast
3:15 PM 77.0 °F 69.8 °F 78% 29.94 in 10.0 mi WSW 3.5 mph - N/A   Overcast
3:35 PM 77.0 °F 69.8 °F 78% 29.95 in 10.0 mi WSW 3.5 mph - N/A   Overcast
3:55 PM 75.2 °F 69.8 °F 83% 29.95 in 10.0 mi Calm Calm - N/A   Overcast
4:15 PM 77.0 °F 69.8 °F 78% 29.95 in 10.0 mi WNW 4.6 mph - N/A   Overcast
4:35 PM 75.2 °F 69.8 °F 83% 29.96 in 10.0 mi West 5.8 mph - N/A   Mostly Cloudy
4:55 PM 73.4 °F 69.8 °F 88% 29.96 in 10.0 mi SW 3.5 mph - N/A   Scattered Clouds
5:15 PM 73.4 °F 69.8 °F 88% 29.97 in 10.0 mi West 4.6 mph - N/A   Mostly Cloudy
5:35 PM 71.6 °F 71.6 °F 100% 29.97 in 10.0 mi WSW 4.6 mph - N/A   Overcast
5:55 PM 71.6 °F 71.6 °F 100% 29.98 in 10.0 mi Calm Calm - N/A   Overcast
6:15 PM 71.6 °F 69.8 °F 94% 29.97 in 10.0 mi Calm Calm - N/A   Mostly Cloudy
6:35 PM 71.6 °F 69.8 °F 94% 29.97 in 10.0 mi Calm Calm - N/A   Scattered Clouds
6:55 PM 71.6 °F 69.8 °F 94% 29.97 in 10.0 mi Calm Calm - N/A   Clear
7:15 PM 69.8 °F 69.8 °F 100% 29.97 in 10.0 mi Calm Calm - N/A   Clear
7:35 PM 69.8 °F 69.8 °F 100% 29.98 in 10.0 mi Calm Calm - N/A   Scattered Clouds
7:55 PM 69.8 °F 69.8 °F 100% 29.98 in 10.0 mi Calm Calm - N/A   Scattered Clouds
8:15 PM 69.8 °F 69.8 °F 100% 29.99 in 10.0 mi Calm Calm - N/A   Scattered Clouds
8:35 PM 69.8 °F 69.8 °F 100% 30.01 in 7.0 mi Calm Calm - N/A   Mostly Cloudy
8:55 PM 69.8 °F 69.8 °F 100% 30.02 in 7.0 mi Calm Calm - N/A   Mostly Cloudy
9:15 PM 69.8 °F 69.8 °F 100% 30.03 in 5.0 mi Calm Calm - N/A   Overcast
9:35 PM 69.8 °F 69.8 °F 100% 30.02 in 4.0 mi Calm Calm - N/A   Overcast
9:55 PM 69.8 °F 69.8 °F 100% 30.02 in 5.0 mi Calm Calm - N/A   Overcast
10:15 PM 69.8 °F 69.8 °F 100% 30.02 in 5.0 mi Calm Calm - 0.01 in Rain Light Rain
10:35 PM 69.8 °F 69.8 °F 100% 30.02 in 7.0 mi Calm Calm - 0.01 in   Light Drizzle
10:55 PM 69.8 °F 69.8 °F 100% 30.03 in 5.0 mi Calm Calm - 0.01 in   Overcast
11:15 PM 69.8 °F 69.8 °F 100% 30.03 in 5.0 mi Calm Calm - N/A   Overcast
11:35 PM 69.8 °F 69.8 °F 100% 30.02 in 5.0 mi Calm Calm - N/A   Overcast
11:55 PM 69.8 °F 69.8 °F 100% 30.04 in 4.0 mi Calm Calm - N/A   Overcast